Simultaneous Nadir Overpasses (SNOs) Predictions

Prediction of SNOs between GOES-16 and METOP-B Satellite Orbit:

Table of predicted SNOs for the next 14.0 days since TLE Epoch: 8/5/2023
Index Date Time (GOES-16) GOES-16 Lat,Lon METOP-B Lat,Lon Distance(km) Time Diff (sec)
1 08/05/2023 14:26:51 -0.00, -75.21 -0.07, -74.80 46.22 80
2 08/07/2023 02:48:31 0.00, -75.22 -0.93, -79.40 476.57 80
3 08/08/2023 02:25:12 -0.00, -75.24 0.20, -74.41 94.23 80
4 08/09/2023 14:46:43 -0.00, -75.27 0.81, -78.98 421.70 80
5 08/10/2023 14:23:23 -0.00, -75.29 -0.26, -73.98 149.34 80
6 08/12/2023 02:45:03 0.00, -75.31 -0.72, -78.58 372.68 80
7 08/13/2023 02:21:43 0.00, -75.33 0.41, -73.59 198.69 80
8 08/14/2023 14:43:14 -0.01, -75.38 0.64, -78.15 316.21 80
9 08/15/2023 14:19:54 -0.00, -75.40 -0.50, -73.16 255.71 80
10 08/17/2023 02:41:33 0.00, -75.43 -0.53, -77.75 264.73 80
11 08/18/2023 02:18:14 0.00, -75.46 0.61, -72.77 307.69 80
